Wednesday, November 26, 2014
01:35 UTC
  |  Log In   |  Register Free
Airport Search:

Farmington Regional Airport
(KFAM)

Farmington Regional Airport Diagram
No Airport Diagram Available

FAA data valid effective November 13, 2014 - January 08, 2015 (unless otherwise noted).

 
 
 
 
 
 
 
 
 
 
 
 
 
 

Current Aviation Weather for Farmington Regional Airport (KFAM)

The most recent METAR observation for KFAM was updated at: 0120
METAR Summary (Translated METAR)
KFAM
260055Z AUTO 00000KT 10SM CLR 01/M07 A3017 RMK AO1
KSAR
260115Z AUTO 00000KT 10SM CLR 00/M04 A3020 RMK AO2 T10021040
(41.7 nm NE from KFAM)
KSAR
260115Z AUTO 00000KT 10SM CLR 00/M04 A3020 RMK AO2 T10021040
(41.7 nm NE from KFAM)
TAF
No TAF information found within 50 nm of KFAM
  Airport Weather Conditions for KFAM

 Current Weather at FAM
34° F
Fair
North winds at 0.0 mph
FAM NOAA Radar

Pressure: 30.17 in
Humidity: 56%
Wind: Calm
Dew Point: 19.4°F
Visibility: 10.00 mi


Airport Weather Forecast for KFAM

Translated METAR and TAF for KFAM
Translated METAR for KFAM (0130 UTC 26 November 2014)
found at http://aviationweather.gov/adds/metars/
 
METAR text: KFAM 260115Z AUTO 00000KT 10SM CLR M01/M08 A3018 RMK AO1
Conditions at: KFAM (FARMINGTON , MO, US) observed 0115 UTC 26 November 2014
Temperature: -1.0°C (30°F)
Dewpoint: -8.0°C (18°F) [RH = 59%]
Pressure (altimeter): 30.18 inches Hg (1022.1 mb)
Winds: calm
Visibility: 10 or more miles (16+ km)
Ceiling: at least 12,000 feet AGL
Clouds: sky clear below 12,000 feet AGL
Weather: automated observation with no human augmentation;
there may or may not be significant weather present at this time
Translated TAF for KFAM

There is no translated TAF available for this airport

Find All Airport Services Find A Hotel Find A Rental Car Find A Golf Course Find A Restaurant $100 Hamburger



FBO's on the Field
FBO Company Facility Photos Services Transportation Aviation Fuel Prices: Prices include tax
Catering Weather Repair Courtesy Rental Type 100LL JetA JetA+ MOGAS 8087
 
Farmington Regional Airport

This FBO has not yet been rated
FS:Shell
Last Updated: Oct-28
Login to update fuel prices
SS:
Contact Farmington Regional AirportMore FBO Information
 
Add another FBO Facility Photos Catering Weather Repair Courtesy Rental Type 100LL JetA JetA+ MOGAS 8087
Services Transportation Aviation Fuel Prices: Prices include tax


model-print
model-print
model-print
model-print